Temperature
13 13 14 14 14 15 15 15 15 15 15 14 14 13 13 13 13 13 13 13 13 13 13 13 13 14 14 14 14 14 14 14 14 13 13 12 13 13 13 13 13 13 13
11 12 12 12 13 13 14 14 14 14 14 14 13 13 13 13 13 13 13 13 13 13 13 13 13 13 13 14 14 14 14 14 13 12 12 12 12 12 12 12 12 12 12
10 11 11 11 11 12 12 13 13 13 14 13 13 13 13 12 12 12 12 12 12 13 13 13 13 13 13 13 13 13 13 13 13 12 11 11 11 11 11 11 11 11 12
9 9 10 10 10 10 11 12 12 13 13 13 13 12 12 12 12 12 12 12 12 12 12 12 12 12 12 13 12 13 13 12 12 12 11 11 11 11 11 11 11 11 11
9 9 9 9 9 9 10 10 11 12 12 12 12 12 12 12 12 12 12 12 12 12 12 12 12 12 12 12 12 12 12 12 11 11 11 11 11 11 12 12 12 11 11
8 8 8 8 8 9 9 10 10 11 11 12 12 12 12 12 12 12 12 11 11 11 12 12 12 12 12 12 12 12 11 11 12 12 12 12 11 12 12 12 12 12 12
8 8 8 8 8 8 8 9 9 10 11 11 12 12 12 12 12 12 12 11 11 11 11 11 11 11 11 11 11 11 11 11 12 12 12 12 11 11 12 12 12 13 12
9 9 9 8 9 9 9 9 9 9 10 10 11 11 11 12 12 12 12 11 11 11 11 11 11 11 11 11 11 11 11 11 11 11 11 11 11 11 11 11 11 11 11
9 9 9 9 9 9 9 9 9 9 9 10 10 11 11 11 11 12 12 11 11 11 11 11 11 11 11 11 11 11 11 11 11 11 11 11 11 11 11 11 11 11 11
8 8 8 8 8 8 8 8 8 8 8 9 9 10 10 10 11 11 11 11 11 11 11 11 11 11 11 11 11 11 11 11 11 11 11 10 10 10 10 10 11 12 11
7 7 7 7 7 7 8 8 8 8 8 8 9 9 9 10 10 11 11 11 11 11 11 11 11 11 11 11 11 11 11 11 10 10 10 10 10 9 9 10 10 11 11
7 7 7 7 7 8 8 8 8 8 8 8 8 8 9 9 9 10 11 11 11 11 12 11 11 11 11 11 11 11 11 11 10 10 10 10 10 9 9 9 9 9 9
6 6 6 6 6 7 7 7 8 8 8 9 8 8 8 9 9 10 10 10 11 11 11 11 11 11 11 11 11 11 10 10 10 10 10 10 9 8 8 8 8 8 8
5 5 5 5 6 6 7 7 8 9 9 9 8 8 8 8 9 9 10 10 10 10 11 11 10 10 10 10 10 10 10 10 10 10 10 9 8 8 8 8 8 8 8
4 5 5 5 6 6 7 7 8 8 9 8 8 8 7 8 8 9 9 9 10 10 10 10 10 9 9 9 9 9 9 9 9 9 9 9 9 9 9 9 9 9 9
4 4 4 5 5 6 6 7 7 8 8 8 7 7 7 7 8 8 9 9 10 10 10 10 10 10 10 10 10 9 9 9 9 9 9 9 9 9 9 9 9 9 9
4 4 4 4 5 5 6 7 7 7 7 7 7 7 6 7 7 8 8 9 10 10 10 11 11 10 10 10 10 10 9 9 9 9 9 9 9 9 9 9 9 9 9
4 4 4 4 4 5 6 7 8 8 7 7 6 6 6 6 7 7 8 8 9 9 11 11 11 11 11 10 10 10 9 9 9 9 9 9 9 9 9 9 9 9 9
4 4 4 4 5 5 6 6 7 8 8 7 7 6 6 6 6 7 7 8 8 9 10 11 11 11 11 10 10 10 10 9 9 9 9 9 9 9 9 9 9 8 9
4 4 4 4 5 5 5 6 7 7 7 7 7 6 6 6 6 7 7 8 9 10 11 11 11 11 11 11 10 10 10 9 9 9 9 9 9 9 9 9 9 9 9
4 4 4 4 5 5 6 6 7 7 7 7 6 6 6 7 7 7 8 8 10 10 11 11 11 11 11 10 10 10 10 10 9 9 9 9 9 9 10 9 9 9 9
4 4 4 5 5 5 6 7 7 7 7 6 6 6 6 7 8 8 9 9 10 11 11 11 11 11 11 11 11 10 10 10 10 10 10 9 9 9 10 10 9 9 9
4 4 4 5 5 5 6 7 7 7 6 6 6 6 7 7 8 9 9 10 11 11 11 11 11 11 11 11 11 11 11 10 10 10 10 10 10 10 10 10 9 9 9
4 5 5 5 6 6 7 7 7 6 6 6 6 7 7 8 9 9 10 10 11 11 11 11 11 11 11 11 11 11 11 11 10 10 10 10 10 10 10 10 10 10 9
5 5 6 6 6 7 7 6 6 6 6 6 7 7 8 8 9 10 10 11 11 11 11 11 11 11 11 10 10 11 11 10 10 10 10 10 10 10 10 10 10 10 10
6 6 6 7 7 7 6 6 7 6 7 7 7 8 9 9 10 10 10 10 10 10 10 10 10 10 10 10 10 10 10 10 10 10 10 10 10 10 10 10 10 10 10
Wind_Speed
15 14 13 11 11 10 10 11 11 11 11 11 11 11 11 11 11 11 11 11 11 11 9 10 11 11 9 9 9 9 9 8 6 6 6 6 6 7 7 8 10 11 13
15 15 14 14 13 12 12 13 12 12 12 12 11 11 11 11 11 11 11 10 9 9 8 7 7 6 6 6 5 6 6 8 11 13 7 6 6 8 8 9 9 11 13
15 15 15 15 15 15 15 14 14 14 14 13 12 12 11 10 10 10 9 8 7 6 5 5 5 3 3 2 3 5 6 8 11 13 9 6 6 8 10 10 12 10 12
15 15 15 15 16 17 17 16 15 14 15 15 14 13 11 10 10 9 7 6 5 3 3 3 3 1 3 5 6 8 9 11 11 11 10 8 8 10 10 11 11 10 10
12 12 12 13 14 15 16 16 16 15 16 15 15 13 12 10 9 7 6 5 3 1 2 4 5 7 8 7 8 9 10 10 10 9 9 10 10 10 10 10 11 10 9
13 13 12 12 12 13 14 16 16 16 15 15 15 14 13 10 5 2 6 5 3 2 3 5 7 8 12 13 13 10 8 8 10 9 9 10 10 9 8 9 10 10 8
16 16 15 14 14 13 13 14 14 14 14 15 15 15 14 10 10 8 6 5 4 3 4 5 6 8 10 11 12 12 11 9 5 6 11 11 10 9 8 8 6 7 8
19 18 17 17 16 15 14 13 12 12 12 12 14 15 14 12 14 12 8 7 6 5 5 7 8 9 9 10 11 10 9 9 7 9 11 10 10 8 6 8 9 9 8
21 20 19 18 18 17 16 15 12 11 11 11 11 13 14 13 16 15 12 9 8 7 7 7 8 10 9 9 12 12 11 10 14 17 15 13 13 10 4 6 7 7 8
22 21 20 19 18 18 17 16 14 11 11 11 10 10 12 13 16 17 14 10 10 9 7 7 7 10 9 6 11 12 13 11 12 12 11 10 9 7 3 1 4 6 8
22 21 20 19 19 19 17 16 15 13 12 11 9 8 8 10 14 18 16 10 11 10 10 9 8 11 9 4 6 10 12 13 12 11 9 8 8 7 6 6 6 3 5
21 21 20 19 18 17 16 15 14 13 12 11 9 7 4 5 8 15 16 12 7 10 9 9 10 12 10 6 6 12 13 12 10 9 8 8 8 8 8 9 10 11 10
21 20 19 19 17 17 16 15 14 13 12 10 8 6 5 5 6 12 14 10 5 6 7 13 15 16 14 10 13 13 11 9 9 8 8 8 9 9 9 8 9 8 8
21 20 17 17 17 17 14 14 14 13 12 9 8 6 6 6 6 9 11 10 9 10 12 14 14 11 10 13 12 9 8 7 7 8 8 9 9 8 7 7 7 7 8
20 18 16 16 16 15 14 13 14 13 9 7 7 6 6 8 8 11 13 14 14 13 15 13 12 12 12 11 10 8 8 8 7 8 9 9 8 8 7 6 5 6 7
18 16 14 12 12 13 13 13 13 12 7 7 4 5 4 4 8 10 12 12 15 19 16 14 13 12 12 12 11 10 9 9 9 9 9 8 8 8 8 7 6 6 6
17 15 13 11 12 12 12 12 11 11 10 10 9 8 6 7 10 12 12 13 17 18 14 13 13 12 12 11 10 10 9 9 9 9 8 8 8 9 8 7 6 6 6
16 15 13 12 12 12 12 12 11 11 10 9 9 11 10 11 13 15 16 13 10 12 12 13 13 12 12 11 11 10 10 10 10 9 9 8 8 8 8 8 7 6 5
12 10 10 11 12 12 12 12 11 11 8 6 6 7 10 12 14 17 18 12 15 15 13 12 13 13 12 11 11 10 11 10 10 9 9 9 9 8 8 7 6 5 3
8 10 11 10 10 11 11 12 11 9 8 6 6 6 9 10 9 12 12 13 14 15 14 13 13 13 12 12 11 11 11 11 11 10 10 9 8 8 8 8 8 8 6
5 7 11 10 9 9 10 11 10 8 7 6 6 8 13 13 14 15 15 15 15 15 14 12 12 13 13 12 12 12 12 11 11 11 10 10 9 8 7 7 7 6 6
3 5 7 8 8 8 9 9 8 7 6 6 5 8 14 13 14 15 16 16 14 13 14 12 12 13 13 13 12 12 12 12 12 11 11 10 9 9 8 7 7 6 6
3 4 5 6 7 8 8 7 6 6 5 5 6 9 12 13 14 16 17 16 14 13 13 12 12 12 13 13 12 12 12 12 12 12 11 11 10 9 8 8 8 7 7
3 4 5 6 6 7 6 5 5 5 5 6 7 11 13 13 14 16 16 15 13 12 12 12 12 13 15 13 11 12 12 12 13 13 14 12 11 10 9 9 9 9 9
2 4 4 5 5 5 4 4 4 5 6 7 9 11 13 14 15 16 15 14 14 13 13 11 10 12 15 17 14 12 10 9 8 10 14 12 12 11 10 10 10 10 11
2 2 2 3 3 3 3 4 4 5 6 8 10 12 15 15 15 15 14 13 12 11 10 9 10 12 14 15 16 12 12 13 11 8 10 13 13 13 12 11 13 12 13
Wind_Direction
359 350 337 321 302 284 271 265 261 260 260 262 270 278 284 289 293 294 296 298 296 293 286 277 270 262 250 241 236 229 217 204 161 122 117 118 110 106 102 99 96 93 93
350 347 345 337 327 311 294 282 271 262 256 254 259 266 274 282 290 293 296 302 301 297 298 296 288 272 246 238 224 212 196 175 148 135 130 129 126 124 117 111 104 99 98
337 336 337 337 335 328 316 302 286 270 259 253 251 256 264 275 283 287 291 296 300 306 318 321 309 277 226 181 157 145 139 134 133 134 132 133 136 138 130 120 114 115 110
326 324 324 326 327 325 321 315 301 283 266 253 247 247 253 262 270 277 281 283 289 313 347 4 12 49 135 123 116 116 119 120 125 129 133 144 147 150 140 133 127 124 122
303 303 303 308 312 314 316 316 309 294 274 259 249 244 244 248 253 261 265 262 259 248 58 55 57 77 94 103 113 116 121 124 131 137 146 153 152 158 148 137 126 124 123
283 282 281 284 290 296 302 307 306 299 285 267 250 243 238 239 159 202 265 234 224 173 112 94 96 95 96 91 89 90 106 136 146 149 154 150 148 145 138 142 145 140 129
283 281 277 272 270 274 281 289 295 298 293 276 255 242 234 215 164 190 234 230 192 150 122 115 107 108 116 112 100 91 77 70 107 140 134 133 132 130 141 138 113 113 107
285 283 282 276 270 267 268 274 282 293 296 288 268 249 234 206 176 188 206 208 177 148 128 122 120 126 125 129 127 116 99 72 78 105 109 107 107 104 105 107 112 115 115
285 284 283 280 275 271 269 270 275 284 292 293 284 265 241 208 180 185 202 191 170 155 141 132 134 131 127 139 134 127 115 94 71 75 77 81 69 56 52 144 157 157 135
283 282 281 280 276 272 270 270 271 276 282 288 286 277 256 225 185 184 202 195 173 162 148 138 121 130 138 156 149 141 132 126 121 111 102 108 103 95 46 132 174 159 142
284 281 277 276 274 268 264 262 262 265 276 282 280 274 266 250 190 184 199 204 178 176 166 161 135 128 137 135 167 150 140 138 135 132 127 123 117 112 105 82 52 78 119
282 278 274 271 270 267 258 254 254 259 265 270 267 262 248 258 210 191 196 221 208 181 172 153 131 133 131 130 129 125 136 148 146 147 142 133 124 110 94 84 71 65 63
280 275 272 269 264 261 260 253 249 246 253 263 261 251 231 222 198 181 188 203 209 179 139 111 126 133 129 116 122 136 157 158 155 153 142 131 117 110 111 107 100 98 92
277 273 269 265 260 253 249 247 245 245 245 252 255 246 224 209 186 177 181 178 153 135 123 121 129 137 125 118 141 161 171 159 160 149 138 132 131 141 147 146 146 144 127
275 270 265 260 256 254 248 243 244 244 247 255 265 249 217 209 185 182 181 178 176 155 145 146 148 148 147 152 158 158 154 154 156 145 144 147 151 153 148 139 139 138 130
273 265 257 252 250 247 244 236 221 232 186 191 232 260 230 190 156 174 186 169 152 150 159 159 160 160 159 159 159 159 162 161 157 152 155 159 158 154 151 152 154 136 126
269 260 251 243 243 243 240 233 219 204 197 198 206 217 217 163 159 165 157 145 150 161 173 165 165 165 162 161 162 161 159 153 155 159 161 160 156 156 159 159 151 141 132
266 254 244 236 234 235 235 229 221 207 195 201 205 205 194 172 162 152 138 136 159 184 186 172 170 167 165 164 163 159 152 153 165 166 161 160 162 163 165 167 161 155 145
266 247 234 229 227 228 228 224 219 211 203 196 180 173 175 159 149 150 151 169 178 190 194 179 174 171 169 168 164 159 156 161 168 171 164 166 169 169 170 171 150 124 179
259 234 224 223 223 221 218 215 210 200 195 196 181 162 152 150 153 161 176 188 188 191 193 183 177 174 173 172 168 167 164 164 168 181 170 174 178 178 172 174 165 173 187
247 217 210 217 221 217 210 207 201 192 189 190 178 165 169 173 171 172 183 193 194 190 192 185 177 178 178 177 175 175 173 170 175 182 176 179 184 185 183 180 179 187 182
229 208 203 207 207 207 205 199 191 186 188 187 174 168 180 184 178 179 186 192 193 190 189 187 182 183 183 182 181 181 182 181 182 185 184 184 188 193 194 192 191 194 197
204 189 187 192 192 188 199 194 189 188 188 190 185 172 178 185 180 182 187 190 191 191 185 186 188 185 184 185 186 188 190 189 188 189 192 193 195 199 204 204 207 214 220
168 170 177 180 181 185 189 190 190 196 199 192 185 176 180 183 181 184 187 189 190 187 182 186 191 188 184 186 190 195 197 193 192 193 200 205 204 206 209 212 221 228 233
151 167 176 174 173 177 188 200 211 208 196 191 181 179 182 182 179 181 185 186 184 182 182 186 190 191 191 194 199 203 176 164 193 204 195 210 218 219 223 226 231 238 243
109 141 160 163 168 178 201 222 208 188 182 178 177 179 177 175 174 175 176 176 176 177 180 187 196 198 197 201 206 195 159 165 187 223 224 211 218 225 230 237 243 245 252
Height
1490 1488 1486 1485 1484 1482 1481 1480 1479 1477 1476 1474 1472 1470 1467 1465 1462 1458 1454 1450 1446 1443 1439 1437 1434 1433 1433 1434 1435 1437 1439 1443 1446 1449 1452 1455 1458 1459 1462 1463 1465 1466 1467
1489 1486 1483 1480 1478 1476 1475 1474 1473 1471 1470 1469 1467 1465 1463 1461 1458 1454 1451 1447 1443 1439 1436 1434 1431 1429 1429 1430 1431 1433 1436 1439 1442 1446 1451 1455 1457 1460 1462 1464 1465 1467 1468
1485 1482 1479 1476 1473 1470 1468 1467 1466 1465 1463 1463 1461 1460 1458 1457 1454 1451 1447 1444 1440 1437 1434 1431 1429 1427 1426 1427 1429 1431 1434 1437 1441 1445 1450 1455 1458 1461 1463 1466 1467 1469 1471
1478 1476 1473 1470 1468 1465 1463 1460 1459 1458 1457 1456 1455 1454 1453 1452 1450 1448 1445 1441 1438 1436 1433 1430 1428 1427 1426 1427 1428 1430 1433 1436 1441 1445 1450 1455 1459 1463 1465 1468 1470 1472 1474
1470 1467 1464 1462 1459 1458 1456 1454 1452 1451 1449 1448 1448 1448 1447 1446 1446 1444 1442 1439 1437 1435 1433 1431 1429 1427 1427 1428 1430 1432 1435 1438 1443 1447 1452 1456 1460 1464 1467 1470 1471 1474 1476
1464 1460 1456 1454 1452 1450 1449 1447 1446 1444 1442 1441 1440 1441 1441 1442 1441 1440 1438 1438 1436 1435 1433 1432 1431 1430 1430 1431 1433 1436 1440 1443 1447 1450 1454 1458 1461 1465 1468 1470 1473 1475 1477
1458 1455 1451 1449 1446 1444 1443 1442 1440 1438 1435 1433 1432 1433 1434 1435 1435 1436 1435 1435 1435 1435 1434 1433 1434 1434 1435 1436 1438 1441 1444 1448 1451 1454 1456 1459 1462 1466 1469 1471 1472 1474 1476
1451 1447 1445 1443 1441 1439 1438 1436 1434 1431 1428 1426 1424 1425 1426 1428 1430 1431 1432 1433 1435 1435 1434 1434 1435 1436 1439 1440 1442 1445 1448 1451 1454 1457 1459 1462 1464 1467 1469 1471 1472 1473 1476
1441 1439 1437 1435 1433 1432 1431 1429 1427 1425 1422 1420 1418 1417 1419 1421 1424 1427 1429 1432 1433 1434 1435 1436 1437 1438 1441 1443 1445 1447 1450 1454 1456 1459 1461 1464 1466 1467 1470 1472 1474 1476 1477
1431 1429 1427 1426 1424 1423 1422 1421 1420 1419 1417 1414 1411 1410 1411 1414 1418 1422 1425 1429 1431 1433 1434 1436 1438 1440 1442 1445 1448 1450 1452 1455 1458 1461 1464 1466 1467 1468 1470 1472 1474 1476 1477
1421 1419 1417 1416 1415 1413 1413 1413 1413 1412 1411 1408 1406 1404 1405 1407 1412 1417 1421 1426 1429 1431 1434 1436 1437 1440 1443 1446 1449 1452 1454 1457 1460 1463 1465 1467 1468 1469 1471 1472 1473 1475 1477
1410 1408 1406 1405 1405 1404 1404 1404 1404 1404 1404 1402 1400 1399 1398 1400 1404 1411 1417 1423 1427 1430 1433 1435 1436 1439 1443 1446 1449 1452 1455 1458 1462 1464 1466 1468 1469 1471 1471 1472 1473 1473 1475
1399 1397 1396 1395 1394 1394 1395 1396 1397 1397 1397 1396 1395 1394 1393 1395 1398 1405 1413 1419 1424 1428 1431 1433 1435 1439 1442 1446 1449 1452 1456 1460 1462 1464 1466 1468 1470 1471 1472 1473 1474 1475 1476
1387 1385 1385 1384 1384 1385 1386 1387 1389 1390 1390 1390 1390 1389 1388 1390 1392 1399 1407 1415 1421 1425 1428 1431 1435 1439 1442 1445 1449 1453 1457 1460 1462 1464 1466 1468 1470 1472 1474 1475 1477 1478 1479
1375 1374 1374 1374 1374 1375 1377 1378 1380 1383 1384 1385 1385 1385 1384 1386 1388 1396 1403 1411 1418 1423 1426 1431 1435 1439 1442 1446 1450 1453 1456 1458 1461 1463 1465 1468 1470 1473 1475 1476 1478 1479 1479
1362 1362 1363 1364 1365 1367 1368 1370 1372 1376 1378 1379 1380 1380 1381 1382 1386 1392 1401 1409 1416 1421 1426 1431 1434 1438 1442 1445 1449 1452 1454 1457 1460 1462 1465 1468 1470 1473 1475 1477 1478 1479 1479
1351 1351 1352 1354 1356 1358 1361 1363 1366 1369 1371 1373 1374 1375 1377 1379 1384 1390 1398 1407 1413 1420 1425 1429 1433 1437 1440 1444 1447 1450 1453 1456 1459 1462 1465 1467 1470 1472 1474 1476 1478 1479 1479
1340 1341 1342 1345 1348 1351 1354 1357 1360 1363 1366 1367 1369 1371 1374 1377 1383 1389 1397 1404 1411 1418 1423 1428 1431 1435 1439 1443 1446 1449 1452 1455 1458 1462 1464 1467 1469 1472 1474 1476 1477 1478 1479
1331 1332 1334 1337 1341 1344 1348 1351 1355 1358 1361 1363 1365 1367 1371 1375 1381 1388 1395 1402 1409 1415 1421 1426 1430 1434 1438 1442 1445 1448 1451 1454 1458 1461 1464 1466 1469 1471 1473 1475 1476 1476 1478
1324 1326 1328 1332 1335 1339 1343 1347 1350 1354 1357 1359 1362 1364 1367 1372 1378 1385 1392 1400 1408 1414 1419 1424 1428 1432 1436 1440 1444 1447 1450 1453 1456 1460 1463 1465 1468 1470 1472 1474 1475 1476 1477
1320 1322 1325 1328 1332 1335 1339 1343 1347 1350 1353 1356 1358 1361 1365 1370 1377 1384 1391 1399 1406 1411 1417 1422 1426 1430 1435 1439 1442 1446 1449 1452 1455 1459 1462 1464 1467 1469 1471 1472 1474 1475 1476
1318 1320 1323 1326 1329 1333 1337 1341 1344 1347 1350 1353 1355 1358 1363 1370 1377 1384 1391 1398 1404 1410 1415 1420 1424 1428 1432 1436 1440 1444 1447 1450 1454 1457 1460 1463 1465 1467 1469 1471 1472 1473 1474
1318 1320 1323 1326 1329 1332 1336 1339 1342 1345 1347 1350 1353 1357 1362 1369 1376 1383 1390 1397 1403 1408 1413 1417 1422 1426 1430 1434 1438 1441 1445 1448 1451 1454 1458 1460 1463 1465 1467 1469 1470 1471 1472
1320 1322 1324 1327 1329 1332 1335 1338 1340 1343 1345 1348 1351 1356 1362 1368 1375 1382 1389 1395 1401 1406 1411 1415 1420 1424 1428 1431 1435 1439 1442 1446 1449 1452 1455 1458 1460 1463 1464 1466 1467 1468 1469
1323 1324 1326 1328 1331 1333 1335 1336 1338 1340 1343 1346 1350 1356 1362 1368 1375 1381 1388 1394 1399 1404 1408 1413 1418 1422 1425 1429 1433 1436 1439 1442 1446 1449 1452 1455 1457 1459 1461 1463 1464 1465 1465
1325 1326 1328 1329 1331 1332 1333 1335 1336 1339 1342 1345 1350 1356 1362 1369 1375 1381 1387 1392 1397 1401 1406 1411 1415 1419 1423 1426 1430 1433 1435 1438 1442 1445 1449 1451 1454 1455 1457 1458 1459 1460 1460